Weather in Shkorpilovtsi

Bulgaria     42°57′52″N   27°52′38″E
temp.,
°C
wind,
m/s
gust,
m/s
humid.,
%
clouds,
%
prec.,
mm/h
press.,
hPa
HPBL,
m
9 may, sun
sun900:00+14nw226273 0.0 1021164
03:00+13nne67651 0.0 1023588
06:00+12nne67645 0.0 1024495
09:00+12nne56543 0.0 1027548
12:00+12ene34535 0.0 1028578
15:00+13ese54575 0.0 1028514
18:00+13ese55555 0.0 1027621
21:00+13se55550 0.0 1028635
10 may, mon
mon1000:00+13sse44562 0.0 1028644
03:00+12ssw12550 0.0 1027388
06:00+11nw11611 0.0 1026231
09:00+13ese34555 0.0 1027649
12:00+13e55550 0.0 1027877
15:00+13e55550 0.0 1026790
18:00+13e55560 0.0 1024771
21:00+13ese55600 0.0 1024692
11 may, tue
tue1100:00+13ese44600 0.0 1023666
03:00+13se23590 0.0 1022603
06:00+12wnw11645 0.0 1021234
09:00+11nw11710 0.0 1021181
12:00+13ese23600 0.0 1021471
15:00+14ese33560 0.0 1019418
18:00+14se33540 0.0 1018373
21:00+14sse33570 0.0 1017360
12 may, wed
wed1200:00+13sw33630 0.0 1016233
03:00+11w22675 0.0 1014133
06:00+11wsw22660 0.0 1013133
09:00+13sse346528 0.0 1012240
12:00+14sse666882 0.0 1012323
15:00+15se66650 0.0 1011458
18:00+15se6768100 0.0 1010510
21:00+15se7876100 0.0 1009564
13 may, thu
thu1300:00+15se7879100 0.0 1009568
03:00+14se567824 0.0 1008526
06:00+15se4577100 0.0 1008446
09:00+15sse33781 0.0 1008387
12:00+15se32770 0.0 1008238
15:00+16ese34721 0.0 1007230
18:00+17ese237017 0.0 1007139
21:00+17se237844 0.0 100823